Temperature
13 13 13 13 13 13 13 13 13 13 12 12 12 12 12 12 12 12 12 12 12 12 12 12 12 12 12 12 11 11 11 11 11 11 11 11 11 10
13 13 13 13 13 13 13 13 13 13 13 12 12 12 12 12 12 12 12 12 12 11 11 12 12 12 12 11 11 11 11 11 11 11 11 11 11 10
13 13 13 13 13 13 13 12 13 13 13 12 12 12 12 12 12 11 11 11 11 11 11 11 11 11 11 11 11 11 11 11 11 11 11 11 11 10
13 13 13 13 13 12 12 12 12 12 12 12 12 12 12 11 11 11 11 11 11 11 11 11 11 11 11 11 11 11 11 11 11 11 11 11 11 10
13 13 13 13 12 12 12 12 12 12 12 12 12 12 11 11 11 11 11 11 11 11 11 11 11 11 11 11 11 11 11 11 11 11 11 10 10 10
13 13 13 12 12 12 12 12 12 12 12 12 12 11 11 11 11 11 11 10 10 10 10 11 11 10 10 11 11 11 10 10 10 10 10 10 10 10
13 13 12 12 12 12 12 12 12 12 11 11 11 11 11 11 11 11 10 10 10 10 10 10 10 10 10 10 10 10 10 10 10 10 10 10 10 10
12 12 12 12 12 12 12 12 12 11 11 11 11 11 11 11 11 10 10 10 10 10 10 10 10 10 10 10 10 10 10 10 10 10 10 10 10 10
12 12 12 12 12 12 11 11 11 11 11 11 11 11 11 11 10 10 10 10 10 10 10 10 10 10 10 10 10 10 10 10 10 10 10 9 9 9
12 12 12 12 11 11 11 11 11 11 11 11 11 10 10 10 10 10 10 10 10 10 9 9 10 10 10 10 10 10 10 9 9 9 9 9 9 9
11 11 11 11 11 11 11 11 11 11 10 10 10 10 10 10 10 10 9 9 9 9 9 9 9 9 9 9 9 9 9 9 9 9 9 9 9 9
11 11 11 11 11 11 11 10 10 10 10 10 10 10 10 10 9 9 9 9 9 9 9 9 9 9 8 9 9 9 9 9 9 9 8 8 8 8
11 11 10 11 10 10 10 10 10 10 10 10 9 9 9 9 9 9 9 9 9 8 9 8 8 8 8 8 8 8 8 8 8 8 8 8 8 7
11 10 10 10 10 10 10 10 10 10 9 9 9 9 9 9 9 9 9 9 8 8 8 8 8 8 8 7 7 8 8 7 7 8 7 7 7 7
10 10 10 10 10 10 9 9 9 9 9 9 8 8 8 8 8 8 8 8 8 8 8 8 7 7 7 7 7 7 7 7 7 7 7 7 7 6
10 10 9 9 9 9 9 9 9 9 8 8 8 8 8 8 8 8 8 8 8 8 7 7 7 7 7 7 7 6 6 6 6 6 6 6 6 6
9 9 9 9 9 9 9 9 8 8 8 8 8 8 7 7 7 7 7 7 7 7 7 7 7 7 7 6 6 6 6 6 6 6 6 6 6 5
9 9 9 8 8 8 8 8 8 8 8 7 7 7 7 7 7 7 7 7 6 6 6 6 6 6 6 6 6 6 5 5 5 5 5 5 5 5
8 8 8 8 8 8 8 7 7 7 7 7 7 7 7 6 6 6 6 6 6 6 6 6 6 5 5 5 5 5 5 5 5 5 4 4 5 5
8 8 8 8 8 7 7 7 7 7 7 6 6 6 6 6 6 6 6 6 5 5 5 5 5 5 5 5 5 5 5 5 4 4 4 4 4 4
8 7 7 7 7 7 7 6 6 6 6 6 6 6 6 5 5 5 5 5 5 5 5 5 5 5 5 4 4 4 4 4 4 4 4 3 3 3
7 7 7 7 7 6 6 6 6 6 6 6 5 5 5 5 5 5 4 4 4 4 4 4 4 4 4 4 4 4 4 3 3 3 3 3 3 3
7 7 7 6 6 6 6 6 5 5 5 5 5 5 5 4 4 4 4 4 4 3 3 3 3 3 3 3 3 3 3 3 2 2 3 2 2 2
Wind_Speed
1 1 1 1 0 0 0 1 2 1 1 2 1 2 4 5 5 6 6 6 6 5 4 4 3 2 1 1 1 1 0 1 0 0 1 1 2 2
1 1 1 1 1 0 0 1 1 2 1 1 1 2 3 4 5 6 7 8 7 6 5 4 4 4 3 2 2 2 1 1 1 1 1 1 1 1
3 3 3 2 1 1 1 0 1 0 2 1 1 2 2 2 2 4 7 7 7 7 6 5 5 5 5 4 3 2 1 1 1 1 1 1 1 1
4 3 4 3 2 1 1 1 1 1 2 2 1 1 2 3 3 3 4 6 7 8 8 7 6 6 6 5 4 3 3 2 2 2 2 2 2 2
4 4 4 4 4 3 2 2 1 1 1 2 2 1 1 2 2 2 2 2 5 7 8 8 8 7 7 6 6 5 4 4 3 3 3 3 2 3
5 4 3 4 5 4 3 3 2 1 1 1 1 2 2 2 2 2 2 2 2 4 4 6 8 9 8 8 7 6 6 5 5 5 4 4 4 4
3 3 3 2 3 3 2 2 2 1 1 1 2 1 2 2 2 2 2 2 2 2 2 3 5 6 7 8 8 7 7 6 6 6 6 6 5 5
2 2 2 3 3 3 3 3 4 3 3 2 2 3 3 2 2 2 1 1 2 1 2 3 3 3 5 7 8 8 8 7 7 6 6 6 6 6
3 3 2 3 3 3 4 4 3 4 5 4 4 4 3 2 2 2 2 2 3 2 1 2 2 3 4 7 9 9 9 8 7 7 6 6 6 6
3 3 3 3 3 3 3 2 3 4 5 5 4 4 3 2 2 3 3 2 2 1 2 2 2 3 2 5 8 9 8 7 7 7 7 7 7 7
3 2 2 2 3 3 2 2 3 3 3 6 6 5 3 3 2 1 1 1 2 2 1 2 2 1 2 2 5 8 8 7 6 6 6 6 6 7
2 2 2 2 3 2 3 3 3 3 2 2 2 3 4 4 5 4 4 3 2 2 2 2 2 1 1 1 2 4 5 6 6 6 6 6 5 4
2 2 2 3 3 2 2 3 4 3 2 3 3 3 3 3 3 4 3 4 4 3 2 2 2 1 2 2 1 2 3 3 4 5 5 6 6 5
2 2 2 2 2 3 3 3 4 3 2 2 2 3 3 3 3 3 3 3 4 4 3 3 2 3 2 2 2 1 2 2 2 2 3 5 6 6
2 3 3 2 2 2 3 4 3 2 2 3 3 4 3 3 2 1 1 1 2 3 3 3 3 3 3 3 3 2 1 2 2 2 2 3 3 3
2 2 2 3 3 3 3 3 3 3 3 3 3 3 2 2 2 2 2 2 2 3 2 3 3 3 3 3 3 2 2 2 2 2 2 2 3 5
3 2 1 1 2 1 2 2 2 2 2 3 3 3 2 2 2 2 2 2 3 3 3 2 1 1 2 3 3 3 3 2 2 3 2 3 3 3
4 2 3 3 3 3 3 2 2 3 2 2 2 2 3 3 2 2 2 2 3 3 3 2 1 0 1 2 3 4 3 3 2 2 2 3 5 4
3 3 3 3 3 3 3 3 3 3 2 2 2 2 2 2 2 2 2 2 3 3 3 2 2 3 3 5 3 3 3 3 2 2 3 4 5 5
3 3 3 3 2 2 2 2 2 2 2 2 2 2 3 3 2 3 3 3 3 3 3 2 3 3 5 5 3 3 4 4 3 4 4 4 4 5
3 3 3 3 3 3 3 2 2 2 2 2 2 2 2 2 2 3 3 3 3 3 3 4 4 4 3 1 2 3 3 4 5 4 3 3 3 3
3 3 3 3 3 3 3 2 2 2 3 2 2 2 2 2 3 3 3 3 3 3 4 3 2 1 1 3 4 4 3 2 4 5 4 5 3 4
4 4 3 3 3 3 2 3 3 3 3 3 2 3 3 2 3 3 3 3 3 3 3 2 2 2 2 3 3 3 3 3 2 2 3 6 6 7
Wind_Direction
189 163 165 210 303 340 9 153 164 199 232 196 183 183 155 153 168 168 163 171 171 172 172 176 182 190 198 193 193 169 112 2 352 106 95 65 66 79
184 179 190 180 180 184 254 280 230 183 202 205 193 178 164 164 180 175 174 172 177 178 179 185 196 203 207 202 199 191 209 248 240 182 141 118 83 64
210 194 193 187 189 189 190 233 284 165 186 234 184 167 155 167 168 182 174 167 178 189 189 194 200 202 206 206 202 199 203 215 192 189 183 189 206 252
220 200 195 193 191 198 194 214 237 226 169 199 219 189 183 181 176 202 185 179 183 193 196 199 203 201 200 201 199 198 203 213 209 205 209 220 237 257
209 211 205 190 196 194 199 208 223 244 168 173 213 210 213 193 184 212 204 185 192 192 199 205 208 207 204 204 204 205 210 219 224 225 224 230 246 259
205 210 209 197 194 189 196 194 194 210 194 172 206 218 224 226 182 202 230 232 219 188 199 207 211 212 213 211 209 209 214 220 224 226 231 232 241 251
213 205 188 166 153 169 181 182 180 197 205 196 219 236 232 216 216 216 221 236 237 186 197 213 203 204 211 216 214 214 216 219 223 227 231 236 241 246
225 214 181 167 164 161 172 176 173 192 207 207 227 228 232 217 215 222 220 207 262 250 185 229 187 198 202 204 209 212 214 217 222 228 232 235 242 247
212 219 219 202 185 189 196 203 209 220 216 203 213 229 225 228 215 232 229 212 225 234 169 237 222 223 212 210 206 209 213 217 225 231 237 242 246 250
213 218 207 199 205 201 203 200 218 234 226 211 210 221 218 212 193 211 221 237 254 251 151 215 232 234 224 204 206 206 210 216 224 234 241 245 250 253
209 223 223 199 187 188 182 216 235 241 215 193 198 203 213 222 205 202 234 218 259 257 211 184 222 235 238 217 204 208 212 218 223 233 241 247 248 248
206 210 218 201 188 169 180 204 230 240 228 220 221 234 234 235 224 211 208 214 223 247 236 182 203 165 265 253 187 206 219 226 229 238 246 247 244 243
199 196 206 191 197 214 223 216 232 240 230 222 223 228 230 222 219 219 207 203 210 226 220 168 186 186 195 245 249 201 196 221 233 240 242 245 240 233
202 195 190 184 209 242 247 229 237 254 242 230 228 231 229 228 227 219 212 206 203 208 211 180 192 198 201 227 249 240 208 226 218 224 247 254 248 247
204 190 190 192 205 225 226 237 244 234 219 220 224 226 222 219 221 239 223 225 240 237 237 205 192 200 196 213 226 224 228 233 198 201 224 228 237 244
203 186 198 221 228 225 231 241 233 221 213 223 223 222 219 218 225 219 218 214 240 264 267 241 216 196 214 219 210 223 209 218 224 222 224 237 262 248
166 161 187 207 214 222 229 232 227 215 226 231 225 224 219 221 229 221 216 215 219 237 247 256 256 234 200 205 216 227 222 225 218 208 209 238 245 252
158 184 202 208 210 214 216 223 228 223 222 229 235 220 216 217 225 225 214 209 222 236 237 224 195 226 305 291 233 226 230 231 231 215 207 232 250 259
174 199 212 218 218 218 220 223 231 226 214 213 228 230 222 222 221 224 222 221 229 239 242 223 201 196 226 256 276 250 227 235 228 233 230 231 246 254
200 204 211 215 216 219 226 232 236 229 217 216 223 228 225 223 224 224 225 228 233 239 246 243 226 218 223 235 245 266 249 232 230 238 249 254 258 269
211 211 208 207 209 212 218 221 223 229 222 215 223 222 222 218 226 228 226 236 234 233 237 243 238 232 235 218 252 262 268 261 243 230 235 255 272 274
208 212 212 210 208 211 212 210 220 226 218 220 224 221 219 218 225 230 230 231 231 233 240 247 237 218 217 228 249 255 262 281 275 265 266 254 238 249
213 213 211 212 211 208 207 216 224 222 214 215 219 221 220 227 227 226 232 232 231 236 244 248 237 221 228 230 240 252 259 263 267 284 292 305 293 283
Height
1534 1535 1535 1536 1536 1537 1537 1538 1539 1538 1539 1538 1538 1538 1538 1538 1537 1537 1537 1537 1537 1537 1537 1537 1537 1537 1538 1538 1538 1538 1538 1539 1539 1539 1539 1539 1539 1539
1532 1532 1533 1533 1534 1535 1535 1536 1536 1537 1537 1536 1536 1537 1537 1536 1536 1536 1535 1535 1535 1535 1535 1535 1535 1536 1536 1536 1537 1537 1537 1537 1537 1538 1538 1538 1538 1538
1530 1530 1531 1531 1532 1532 1533 1534 1534 1535 1534 1534 1535 1535 1535 1535 1535 1534 1534 1534 1533 1534 1534 1534 1534 1534 1534 1535 1535 1535 1536 1536 1536 1536 1537 1537 1537 1537
1527 1528 1528 1529 1529 1530 1530 1531 1532 1532 1533 1532 1532 1533 1533 1533 1533 1533 1532 1532 1532 1532 1532 1532 1532 1532 1532 1533 1533 1533 1534 1534 1534 1535 1535 1535 1536 1536
1524 1525 1526 1526 1527 1527 1528 1528 1529 1529 1530 1530 1530 1531 1531 1531 1531 1531 1531 1530 1530 1530 1530 1530 1530 1530 1530 1531 1531 1532 1532 1532 1533 1533 1533 1533 1533 1534
1521 1522 1523 1523 1524 1524 1525 1525 1526 1526 1527 1527 1528 1528 1528 1529 1529 1529 1528 1528 1528 1528 1528 1528 1528 1528 1528 1528 1529 1529 1530 1530 1530 1530 1531 1531 1531 1531
1518 1519 1519 1520 1521 1521 1522 1522 1522 1523 1523 1524 1525 1525 1525 1526 1526 1526 1526 1526 1526 1526 1525 1525 1526 1526 1526 1526 1527 1527 1527 1528 1528 1528 1528 1528 1528 1528
1515 1515 1516 1517 1517 1518 1518 1518 1519 1520 1520 1521 1521 1522 1522 1522 1523 1523 1523 1523 1523 1523 1523 1523 1523 1523 1523 1524 1524 1524 1525 1525 1525 1525 1525 1525 1525 1525
1511 1512 1513 1513 1514 1514 1514 1515 1515 1516 1517 1517 1517 1518 1518 1519 1520 1520 1520 1520 1519 1520 1520 1519 1520 1520 1521 1521 1521 1522 1522 1522 1522 1522 1522 1522 1522 1522
1508 1508 1509 1509 1510 1511 1511 1511 1512 1512 1513 1513 1514 1514 1515 1516 1516 1517 1516 1516 1516 1516 1517 1516 1516 1517 1517 1517 1518 1518 1518 1518 1518 1518 1518 1518 1518 1518
1504 1505 1506 1506 1507 1507 1507 1507 1508 1508 1509 1509 1510 1510 1511 1511 1512 1512 1512 1512 1512 1512 1513 1513 1513 1513 1514 1514 1514 1515 1515 1515 1514 1514 1514 1514 1514 1514
1500 1501 1502 1503 1503 1503 1504 1504 1504 1504 1505 1505 1506 1506 1506 1506 1507 1508 1508 1508 1508 1508 1508 1509 1509 1509 1509 1510 1511 1511 1511 1511 1511 1511 1510 1510 1510 1510
1496 1496 1498 1499 1499 1500 1500 1500 1500 1500 1500 1501 1501 1501 1502 1502 1502 1503 1503 1503 1504 1504 1505 1505 1505 1506 1506 1506 1506 1507 1507 1507 1507 1506 1506 1506 1506 1506
1492 1493 1494 1494 1495 1495 1495 1495 1496 1496 1496 1496 1496 1496 1497 1497 1497 1498 1498 1498 1499 1500 1501 1501 1501 1502 1502 1502 1502 1502 1503 1503 1503 1502 1502 1502 1502 1502
1488 1489 1490 1490 1491 1491 1491 1491 1492 1491 1491 1491 1491 1491 1492 1493 1493 1493 1493 1494 1494 1495 1496 1496 1497 1497 1498 1497 1498 1498 1498 1498 1498 1498 1498 1498 1497 1497
1484 1485 1485 1486 1486 1486 1487 1487 1487 1487 1487 1487 1487 1487 1488 1488 1488 1488 1488 1489 1489 1490 1491 1492 1492 1493 1493 1493 1493 1493 1494 1494 1493 1494 1493 1493 1493 1493
1479 1480 1480 1481 1481 1481 1482 1482 1483 1483 1483 1483 1483 1483 1483 1483 1484 1484 1484 1484 1485 1485 1485 1487 1487 1488 1488 1488 1488 1488 1489 1489 1489 1489 1489 1488 1488 1488
1475 1475 1475 1476 1477 1477 1477 1478 1478 1478 1479 1479 1479 1479 1478 1479 1479 1480 1480 1480 1480 1480 1481 1482 1483 1483 1483 1483 1484 1484 1484 1484 1485 1485 1484 1483 1482 1482
1470 1470 1471 1472 1472 1473 1473 1473 1473 1474 1474 1474 1474 1474 1474 1474 1475 1475 1475 1475 1476 1476 1477 1478 1478 1478 1478 1477 1478 1479 1479 1479 1480 1480 1479 1478 1477 1477
1465 1466 1466 1467 1468 1468 1468 1468 1469 1469 1469 1469 1470 1469 1470 1469 1470 1470 1470 1471 1471 1471 1472 1473 1473 1473 1473 1473 1473 1474 1475 1475 1474 1474 1474 1473 1473 1473
1460 1461 1462 1462 1463 1463 1463 1464 1464 1464 1464 1465 1465 1465 1465 1465 1465 1465 1466 1466 1467 1467 1467 1467 1467 1469 1469 1469 1469 1468 1469 1470 1470 1470 1469 1468 1467 1466
1455 1456 1457 1458 1458 1458 1458 1459 1459 1459 1459 1460 1460 1460 1460 1460 1460 1460 1461 1461 1461 1462 1462 1462 1463 1463 1464 1463 1463 1463 1463 1464 1464 1465 1465 1464 1463 1461
1451 1451 1452 1452 1453 1453 1453 1453 1453 1453 1454 1454 1454 1454 1455 1455 1455 1455 1456 1456 1456 1457 1457 1457 1458 1458 1458 1459 1459 1458 1458 1458 1458 1458 1459 1459 1459 1458